Wind_Speed
46 45 44 44 43 43 42 41 41 40 40 40 40 40 40 40 40 40 40 40 40 40 41 41 40 40 41 41 41 41 40 41 40 41 41 41 42 42
47 46 46 45 44 44 44 43 42 42 41 40 40 41 41 41 41 41 41 41 41 41 41 41 40 40 40 40 40 41 41 41 41 41 42 42 42 42
47 47 47 46 45 45 45 44 43 43 42 41 41 42 42 42 42 42 42 42 42 42 42 41 41 41 41 41 41 41 41 41 42 42 42 42 42 42
47 47 47 46 46 46 46 46 45 44 43 42 42 42 43 43 43 42 42 43 42 42 42 42 42 42 41 41 41 41 41 42 42 42 42 43 44 44
48 48 48 48 48 48 48 47 46 45 45 44 43 43 43 43 43 43 44 43 43 42 42 42 42 41 41 42 42 42 42 43 43 43 43 44 45 45
49 49 49 49 48 49 48 48 47 46 46 45 44 44 44 44 44 44 43 43 43 42 42 42 42 42 42 42 42 43 43 43 44 44 44 45 46 46
49 50 50 50 49 48 49 48 48 48 48 47 46 46 46 45 45 44 43 43 43 42 42 42 42 42 42 42 42 42 42 42 43 44 44 45 46 46
49 50 50 50 50 49 49 49 49 48 48 48 47 47 46 45 45 44 44 43 42 42 42 42 42 42 42 42 41 41 41 41 42 43 44 44 45 46
48 49 49 50 50 50 49 48 48 48 48 48 47 46 46 45 45 44 43 43 42 42 42 42 41 40 40 40 40 41 41 42 43 43 44 45 45 47
46 47 47 48 48 48 48 47 48 48 48 48 47 47 46 45 45 44 43 43 42 42 41 41 41 41 40 40 41 41 42 42 43 44 45 46 46 47
46 46 46 46 46 46 47 47 47 47 47 47 47 47 46 45 44 44 43 43 42 41 41 41 41 41 41 41 42 42 43 44 44 45 46 47 47 48
46 46 45 45 45 44 45 46 46 46 46 46 46 46 45 45 44 44 43 43 42 42 42 42 42 41 41 41 42 43 44 44 45 46 46 47 47 47
45 44 44 45 45 44 44 44 45 46 46 46 46 46 45 44 44 44 44 44 43 43 43 43 42 42 42 42 42 43 44 44 45 46 46 46 47 46
44 44 43 44 44 44 44 44 44 44 44 45 45 45 45 45 44 44 45 45 44 44 44 44 43 43 43 43 44 44 44 45 45 45 45 45 45 45
43 44 43 43 43 44 44 44 44 44 44 44 44 45 45 45 45 45 44 45 45 45 45 45 44 44 44 44 44 44 45 45 45 45 44 44 44 45
42 43 44 43 43 42 42 43 43 43 43 43 43 43 44 45 45 45 45 45 45 45 45 45 45 45 44 44 44 44 45 45 44 43 43 43 44 45
41 42 42 42 42 42 42 42 42 42 42 42 42 41 42 43 44 44 45 45 45 44 44 44 44 45 45 45 44 44 44 44 44 43 42 43 44 45
40 40 40 40 40 41 41 41 41 41 42 41 41 40 40 41 42 43 43 43 43 43 43 43 43 44 44 44 44 43 43 42 42 42 42 42 42 43
39 39 39 39 40 40 40 40 40 40 41 41 41 40 40 40 41 41 41 41 41 41 42 42 43 43 43 43 42 42 42 41 41 41 41 41 40 40
37 38 38 38 39 39 39 39 39 39 39 40 40 39 39 39 39 40 40 40 40 40 40 40 40 41 41 40 40 40 41 40 40 40 40 40 39 39
36 36 36 36 36 37 37 37 37 37 38 38 39 38 38 38 38 38 38 38 38 38 37 38 38 39 39 39 39 38 38 39 39 39 39 38 38 37
35 35 35 35 35 35 36 36 36 37 37 37 37 37 36 36 36 35 35 35 35 35 35 36 36 37 37 37 37 36 36 37 38 38 38 38 37 36
34 34 34 34 34 34 34 35 35 36 36 35 35 35 35 34 34 34 34 34 34 34 34 34 34 35 35 35 35 34 35 36 36 36 36 36 35 35
Wind_Direction
251 253 255 256 257 258 259 260 260 261 261 263 264 265 264 265 267 269 270 272 273 273 274 274 275 276 277 275 274 274 274 275 275 276 277 278 279 279
251 252 254 255 256 258 258 259 260 261 262 262 263 264 265 267 269 269 271 272 273 273 274 275 276 277 277 276 275 275 274 274 274 275 277 277 278 279
251 252 254 255 255 257 258 259 260 261 261 261 263 264 266 268 269 270 271 272 273 274 274 274 275 276 276 275 275 274 273 273 274 277 277 277 278 279
252 252 253 253 255 256 258 259 260 260 261 262 263 265 266 268 269 270 271 272 273 274 274 274 274 275 275 275 275 275 275 275 276 277 278 278 278 278
252 252 252 253 255 256 258 258 259 260 261 262 263 265 267 268 269 270 272 273 273 273 274 274 274 274 275 275 276 276 275 276 277 277 278 278 278 278
251 251 252 254 255 256 256 257 258 259 261 262 263 265 266 267 269 270 271 272 273 273 273 274 274 274 275 276 276 276 276 277 277 278 278 278 278 278
251 251 252 253 255 256 256 257 258 259 260 262 264 265 266 267 269 270 271 271 272 273 273 273 273 274 275 275 276 276 276 277 278 279 279 280 279 279
251 251 252 253 253 255 257 257 258 259 260 262 263 265 267 267 268 269 270 270 271 272 273 273 272 273 275 275 275 276 276 277 278 279 280 281 281 281
251 252 252 252 253 255 256 257 257 258 260 261 263 265 266 266 267 268 268 269 271 271 271 271 272 273 275 275 275 276 277 278 279 281 282 282 283 283
251 251 251 252 253 254 254 255 256 258 259 261 262 263 264 264 265 266 267 268 269 270 271 271 272 273 274 275 276 278 278 279 280 281 282 283 284 285
251 251 251 251 252 254 254 255 257 258 259 260 261 262 263 263 264 266 267 268 269 269 270 272 272 273 274 276 277 279 279 280 281 282 283 285 286 287
250 250 250 251 252 253 255 256 256 257 258 259 260 261 261 262 263 265 266 267 267 268 270 271 272 273 275 276 279 280 281 282 283 284 285 286 286 287
249 249 251 252 253 254 255 256 257 257 258 259 259 260 261 262 262 264 265 266 267 268 269 270 272 273 275 276 278 280 281 282 283 285 286 287 287 287
249 250 251 252 253 254 256 257 258 258 259 259 260 260 260 261 261 262 263 265 267 268 269 270 272 273 275 276 278 280 281 282 284 286 286 287 287 288
250 250 251 252 253 254 255 257 258 259 260 260 260 260 260 261 260 261 263 266 267 268 269 270 271 273 275 277 279 280 281 283 284 285 286 286 288 289
250 251 251 252 254 254 255 257 258 259 260 260 261 261 261 261 261 261 263 265 267 267 268 269 271 273 276 278 279 280 282 283 284 284 284 286 288 290
251 252 253 253 254 254 255 255 256 257 259 259 260 261 263 262 261 262 264 265 266 267 268 269 271 274 276 278 280 281 282 282 282 282 284 286 288 290
252 253 253 254 254 255 255 255 256 257 258 258 260 262 263 264 264 263 264 265 266 267 268 270 272 274 276 278 279 280 281 282 282 283 285 288 289 291
252 253 254 254 255 255 254 255 256 257 257 258 259 261 263 264 264 264 265 266 267 268 269 271 272 274 276 277 279 280 280 281 282 284 286 288 289 290
252 253 254 254 253 254 254 255 256 256 257 258 259 261 263 264 264 264 265 266 268 269 270 271 272 274 275 276 278 279 280 281 282 284 286 288 289 290
252 253 253 253 253 254 254 255 256 256 257 258 260 262 263 263 264 264 265 267 268 269 270 271 273 274 275 276 277 278 279 281 283 284 286 287 289 290
249 250 252 253 254 254 255 255 256 256 257 258 260 261 262 263 263 264 265 267 268 269 270 272 274 275 276 276 277 278 279 281 283 285 286 287 289 290
249 250 250 251 253 254 255 255 255 255 256 258 259 261 262 262 263 264 265 267 268 269 271 272 274 276 277 277 278 279 280 282 284 285 287 288 289 290
Height
5683 5686 5689 5692 5694 5697 5699 5701 5704 5706 5708 5709 5709 5710 5710 5711 5712 5712 5713 5712 5712 5712 5711 5711 5711 5710 5709 5709 5709 5709 5709 5709 5708 5708 5708 5707 5707 5706
5671 5674 5677 5680 5683 5685 5687 5690 5692 5694 5697 5699 5699 5699 5700 5700 5701 5702 5702 5702 5701 5701 5701 5700 5700 5699 5699 5698 5698 5698 5698 5698 5698 5697 5697 5696 5695 5694
5658 5662 5665 5668 5671 5673 5676 5678 5680 5682 5685 5688 5688 5688 5689 5690 5690 5691 5691 5691 5690 5690 5689 5689 5689 5688 5688 5688 5688 5688 5687 5687 5687 5686 5685 5685 5684 5683
5645 5649 5652 5656 5659 5661 5664 5666 5668 5671 5673 5676 5677 5677 5678 5678 5679 5679 5679 5679 5679 5678 5678 5678 5678 5677 5677 5677 5677 5676 5676 5676 5675 5675 5674 5673 5672 5671
5633 5636 5639 5643 5646 5649 5651 5654 5656 5658 5661 5663 5665 5666 5666 5667 5667 5668 5668 5667 5667 5667 5667 5666 5666 5666 5666 5666 5665 5665 5664 5664 5664 5663 5662 5661 5660 5659
5619 5623 5626 5630 5633 5635 5638 5641 5643 5646 5648 5650 5652 5653 5654 5654 5655 5656 5656 5656 5655 5655 5655 5655 5655 5655 5654 5654 5654 5653 5652 5652 5651 5650 5650 5649 5647 5646
5606 5609 5613 5616 5619 5622 5625 5628 5630 5633 5635 5637 5639 5641 5642 5643 5643 5643 5644 5644 5644 5644 5644 5644 5644 5643 5643 5642 5641 5641 5640 5639 5639 5638 5636 5635 5634 5633
5592 5596 5599 5602 5605 5608 5611 5614 5617 5619 5622 5624 5626 5628 5629 5630 5631 5631 5631 5632 5633 5633 5632 5632 5632 5632 5631 5631 5630 5629 5628 5627 5626 5625 5624 5622 5620 5619
5579 5582 5585 5589 5592 5595 5598 5601 5603 5606 5608 5611 5613 5615 5616 5618 5618 5619 5619 5619 5620 5620 5620 5620 5620 5620 5619 5618 5618 5617 5616 5615 5614 5613 5611 5609 5607 5605
5566 5569 5572 5575 5578 5581 5584 5587 5590 5592 5595 5597 5600 5602 5602 5603 5604 5606 5606 5607 5608 5608 5608 5609 5609 5608 5608 5607 5606 5605 5604 5603 5602 5600 5598 5596 5594 5592
5553 5556 5559 5562 5566 5569 5572 5575 5577 5579 5581 5583 5586 5587 5589 5590 5591 5592 5594 5595 5596 5596 5596 5597 5597 5596 5596 5595 5594 5593 5591 5590 5588 5587 5585 5583 5580 5577
5540 5543 5546 5550 5553 5555 5558 5561 5564 5567 5568 5570 5572 5574 5575 5577 5578 5580 5581 5582 5583 5585 5585 5585 5585 5584 5584 5584 5582 5580 5579 5577 5575 5573 5571 5568 5566 5563
5527 5531 5534 5537 5540 5542 5545 5548 5551 5553 5555 5557 5559 5561 5562 5564 5566 5567 5568 5569 5571 5572 5573 5572 5572 5571 5571 5572 5570 5568 5566 5564 5562 5560 5558 5555 5552 5550
5515 5518 5521 5524 5527 5530 5532 5535 5537 5539 5541 5543 5545 5547 5550 5552 5553 5554 5555 5556 5557 5559 5559 5559 5559 5559 5559 5558 5557 5556 5554 5552 5550 5547 5545 5542 5539 5537
5502 5506 5509 5511 5514 5517 5520 5522 5524 5526 5528 5530 5532 5535 5536 5538 5539 5540 5542 5543 5544 5544 5545 5546 5546 5546 5545 5545 5544 5543 5541 5539 5537 5535 5532 5530 5527 5525
5490 5493 5496 5499 5502 5505 5507 5509 5511 5513 5515 5517 5519 5521 5522 5524 5525 5527 5529 5530 5530 5531 5532 5532 5532 5532 5532 5531 5531 5530 5528 5526 5524 5522 5520 5517 5515 5512
5478 5481 5484 5487 5489 5492 5494 5497 5499 5501 5503 5505 5506 5508 5509 5510 5512 5514 5515 5516 5517 5518 5519 5519 5518 5518 5518 5518 5517 5516 5515 5513 5511 5510 5508 5506 5503 5500
5466 5470 5472 5475 5477 5480 5482 5484 5486 5489 5491 5492 5494 5495 5497 5498 5499 5500 5501 5502 5503 5504 5505 5505 5505 5505 5504 5504 5504 5503 5502 5501 5499 5497 5495 5493 5491 5488
5455 5458 5461 5463 5466 5468 5470 5472 5475 5477 5478 5480 5482 5483 5484 5485 5486 5487 5488 5489 5490 5491 5492 5492 5492 5492 5492 5492 5491 5490 5489 5488 5486 5485 5483 5481 5479 5476
5444 5447 5450 5452 5454 5456 5459 5461 5463 5465 5467 5468 5470 5471 5472 5473 5474 5475 5476 5477 5477 5478 5478 5479 5479 5479 5479 5480 5479 5478 5476 5475 5474 5473 5471 5469 5467 5464
5434 5436 5439 5441 5443 5445 5447 5449 5451 5453 5455 5457 5458 5459 5460 5461 5462 5462 5463 5464 5465 5465 5466 5467 5467 5467 5467 5467 5467 5466 5465 5463 5462 5461 5459 5458 5456 5454
5424 5426 5429 5431 5433 5435 5437 5439 5441 5442 5444 5446 5447 5448 5449 5449 5450 5451 5452 5453 5453 5454 5455 5455 5455 5455 5455 5455 5455 5455 5454 5452 5451 5449 5447 5446 5444 5442
5413 5416 5418 5421 5423 5424 5426 5428 5430 5431 5433 5435 5436 5437 5438 5439 5440 5440 5441 5442 5443 5443 5444 5444 5444 5444 5444 5444 5443 5443 5442 5441 5440 5439 5437 5435 5433 5432